• In Uzbekistan
  • List of Countries
  • For 7 days
  • Water Temperature
  • Satellite Maps
  • Weather Map
  • Weather Widgets
  • user-avatar
    Login

    Hourly Weather Gostomia

    Today, 23 April, Tuesday

    Time Temperature Precipitation Wind Pressure Humidity
    00:00 +10°C° 0 mm 6 mps 751 mmHg 59%
    01:00 +9°C° 0 mm 5 mps 751 mmHg 59%
    02:00 +9°C° 0 mm 5 mps 751 mmHg 57%
    03:00 +8°C° 0 mm 6 mps 751 mmHg 55%
    04:00 +8°C° 0 mm 6 mps 751 mmHg 53%
    05:00 +8°C° 0 mm 7 mps 751 mmHg 51%
    06:00 +9°C° 0 mm 8 mps 750 mmHg 50%
    07:00 +9°C° 0 mm 8 mps 750 mmHg 48%
    08:00 +11°C° 0 mm 9 mps 750 mmHg 45%
    09:00 +12°C° 0 mm 9 mps 750 mmHg 42%
    10:00 +14°C° 0 mm 10 mps 749 mmHg 39%
    11:00 +14°C° 0 mm 10 mps 749 mmHg 38%
    12:00 +16°C° 0 mm 10 mps 748 mmHg 38%
    13:00 +17°C° 0 mm 10 mps 748 mmHg 37%
    14:00 +17°C° 0 mm 9 mps 748 mmHg 39%
    15:00 +17°C° 0 mm 9 mps 747 mmHg 40%
    16:00 +18°C° 0 mm 9 mps 747 mmHg 42%
    17:00 +17°C° 0 mm 8 mps 747 mmHg 45%
    18:00 +16°C° 0 mm 7 mps 746 mmHg 47%
    19:00 +15°C° 0 mm 7 mps 746 mmHg 50%
    20:00 +14°C° 0 mm 7 mps 746 mmHg 50%
    21:00 +13°C° 0 mm 8 mps 746 mmHg 49%
    22:00 +12°C° 0 mm 8 mps 746 mmHg 49%
    23:00 +12°C° 0 mm 7 mps 746 mmHg 51%

    Tomorrow, 24 April, Wednesday

    Time Temperature Precipitation Wind Pressure Humidity
    00:00 +12°C° 0 mm 7 mps 746 mmHg 53%
    01:00 +11°C° 0 mm 7 mps 746 mmHg 56%
    02:00 +11°C° 0 mm 7 mps 745 mmHg 55%
    03:00 +11°C° 0 mm 7 mps 745 mmHg 54%
    04:00 +11°C° 0 mm 7 mps 745 mmHg 53%
    05:00 +11°C° 0 mm 7 mps 745 mmHg 56%
    06:00 +11°C° 0 mm 7 mps 745 mmHg 58%
    07:00 +11°C° 0 mm 7 mps 745 mmHg 61%
    08:00 +12°C° 0 mm 7 mps 745 mmHg 60%
    09:00 +15°C° 0 mm 7 mps 745 mmHg 60%
    10:00 +16°C° 0 mm 7 mps 745 mmHg 59%
    11:00 +16°C° 0 mm 7 mps 745 mmHg 59%
    12:00 +16°C° 0 mm 7 mps 745 mmHg 59%
    13:00 +17°C° 0 mm 6 mps 745 mmHg 59%
    14:00 +17°C° 0 mm 6 mps 745 mmHg 60%
    15:00 +19°C° 0 mm 6 mps 745 mmHg 60%
    16:00 +19°C° 0 mm 6 mps 745 mmHg 60%
    17:00 +17°C° 0 mm 5 mps 745 mmHg 63%
    18:00 +16°C° 0 mm 5 mps 745 mmHg 67%
    19:00 +17°C° 0 mm 4 mps 745 mmHg 70%
    20:00 +15°C° 0 mm 4 mps 745 mmHg 72%
    21:00 +15°C° 0 mm 4 mps 745 mmHg 74%
    22:00 +14°C° 0 mm 4 mps 745 mmHg 75%
    23:00 +14°C° 0 mm 4 mps 745 mmHg 75%

    Day after tomorrow, 25 April, Thursday

    Time Temperature Precipitation Wind Pressure Humidity
    00:00 +14°C° 0 mm 4 mps 745 mmHg 75%
    01:00 +14°C° 0 mm 4 mps 745 mmHg 75%
    02:00 +13°C° 0 mm 4 mps 745 mmHg 78%
    03:00 +12°C° 0 mm 3 mps 745 mmHg 81%
    04:00 +12°C° 0 mm 3 mps 745 mmHg 85%
    05:00 +12°C° 0 mm 3 mps 746 mmHg 81%
    06:00 +13°C° 0 mm 3 mps 746 mmHg 78%
    07:00 +14°C° 0 mm 3 mps 746 mmHg 75%
    08:00 +17°C° 0 mm 3 mps 746 mmHg 70%
    09:00 +19°C° 0 mm 3 mps 747 mmHg 64%
    10:00 +21°C° 0 mm 3 mps 747 mmHg 59%
    11:00 +22°C° 0 mm 3 mps 747 mmHg 55%
    12:00 +24°C° 0 mm 3 mps 747 mmHg 51%
    13:00 +26°C° 0 mm 3 mps 747 mmHg 47%
    14:00 +26°C° 0 mm 2 mps 747 mmHg 47%
    15:00 +26°C° 0 mm 2 mps 747 mmHg 46%
    16:00 +26°C° 0 mm 2 mps 747 mmHg 46%
    17:00 +24°C° 0 mm 2 mps 747 mmHg 53%
    18:00 +23°C° 0 mm 2 mps 747 mmHg 60%
    19:00 +20°C° 0 mm 2 mps 747 mmHg 67%
    20:00 +19°C° 0 mm 2 mps 747 mmHg 71%
    21:00 +18°C° 0 mm 2 mps 747 mmHg 75%
    22:00 +16°C° 0 mm 2 mps 747 mmHg 79%
    23:00 +16°C° 0 mm 2 mps 747 mmHg 81%

    26 April, Friday

    Time Temperature Precipitation Wind Pressure Humidity
    00:00 +15°C° 0 mm 2 mps 746 mmHg 84%
    01:00 +15°C° 0 mm 2 mps 746 mmHg 86%
    02:00 +14°C° 0 mm 2 mps 746 mmHg 87%
    03:00 +13°C° 0 mm 3 mps 746 mmHg 88%
    04:00 +13°C° 0 mm 3 mps 745 mmHg 90%
    05:00 +14°C° 0 mm 3 mps 745 mmHg 85%
    06:00 +16°C° 0 mm 3 mps 745 mmHg 80%
    07:00 +17°C° 0 mm 3 mps 745 mmHg 75%
    08:00 +19°C° 0 mm 3 mps 744 mmHg 68%
    09:00 +21°C° 0 mm 3 mps 744 mmHg 61%
    10:00 +23°C° 0 mm 4 mps 744 mmHg 54%
    11:00 +25°C° 0 mm 4 mps 744 mmHg 51%
    12:00 +26°C° 0 mm 4 mps 744 mmHg 49%
    13:00 +27°C° 0 mm 4 mps 743 mmHg 46%
    14:00 +27°C° 0 mm 3 mps 743 mmHg 47%
    15:00 +26°C° 0 mm 3 mps 743 mmHg 48%
    16:00 +26°C° 0 mm 3 mps 742 mmHg 48%
    17:00 +25°C° 0 mm 2 mps 742 mmHg 54%
    18:00 +23°C° 0 mm 2 mps 742 mmHg 60%
    19:00 +21°C° 0 mm 2 mps 742 mmHg 66%
    20:00 +19°C° 1.2 mm 3 mps 742 mmHg 75%
    21:00 +18°C° 1.2 mm 4 mps 742 mmHg 83%
    22:00 +15°C° 1.2 mm 4 mps 743 mmHg 92%
    23:00 +14°C° 1.2 mm 5 mps 743 mmHg 92%

    27 April, Saturday

    Time Temperature Precipitation Wind Pressure Humidity
    00:00 +14°C° 1.2 mm 5 mps 743 mmHg 91%
    01:00 +13°C° 1.2 mm 5 mps 743 mmHg 90%
    02:00 +12°C° 0.4 mm 5 mps 744 mmHg 90%
    03:00 +12°C° 0.4 mm 5 mps 744 mmHg 89%
    04:00 +10°C° 0.4 mm 6 mps 744 mmHg 89%
    05:00 +10°C° 0 mm 5 mps 744 mmHg 86%
    06:00 +10°C° 0 mm 5 mps 745 mmHg 83%
    07:00 +10°C° 0 mm 5 mps 745 mmHg 80%
    08:00 +10°C° 0 mm 5 mps 745 mmHg 78%
    09:00 +12°C° 0 mm 4 mps 746 mmHg 76%
    10:00 +12°C° 0 mm 4 mps 746 mmHg 74%
    11:00 +13°C° 0 mm 5 mps 746 mmHg 68%
    12:00 +15°C° 0 mm 5 mps 746 mmHg 62%
    13:00 +16°C° 0 mm 5 mps 747 mmHg 56%
    14:00 +15°C° 0.1 mm 5 mps 747 mmHg 59%
    15:00 +14°C° 0.1 mm 5 mps 747 mmHg 61%
    16:00 +14°C° 0.1 mm 4 mps 747 mmHg 64%
    17:00 +13°C° 0 mm 3 mps 747 mmHg 66%
    18:00 +13°C° 0 mm 2 mps 747 mmHg 68%
    19:00 +13°C° 0 mm 1 mps 747 mmHg 70%
    20:00 +12°C° 0 mm 2 mps 747 mmHg 74%
    21:00 +10°C° 0 mm 2 mps 747 mmHg 77%
    22:00 +10°C° 0 mm 3 mps 748 mmHg 81%
    23:00 +9°C° 0 mm 2 mps 748 mmHg 81%

    28 April, Sunday

    Time Temperature Precipitation Wind Pressure Humidity
    00:00 +8°C° 0 mm 2 mps 748 mmHg 81%
    01:00 +8°C° 0 mm 1 mps 748 mmHg 81%
    02:00 +7°C° 0 mm 1 mps 747 mmHg 82%
    03:00 +7°C° 0 mm 1 mps 747 mmHg 82%
    04:00 +6°C° 0 mm 1 mps 746 mmHg 82%
    05:00 +8°C° 0 mm 1 mps 746 mmHg 80%
    06:00 +8°C° 0 mm 2 mps 746 mmHg 78%
    07:00 +9°C° 0 mm 3 mps 746 mmHg 75%
    08:00 +9°C° 0.4 mm 3 mps 746 mmHg 77%
    09:00 +10°C° 0.4 mm 4 mps 746 mmHg 79%
    10:00 +9°C° 0.4 mm 5 mps 745 mmHg 81%
    11:00 +9°C° 0.5 mm 5 mps 746 mmHg 78%
    12:00 +9°C° 0.5 mm 5 mps 746 mmHg 75%
    13:00 +8°C° 0.5 mm 5 mps 746 mmHg 72%
    14:00 +9°C° 0 mm 5 mps 746 mmHg 67%
    15:00 +9°C° 0 mm 6 mps 746 mmHg 63%
    16:00 +9°C° 0 mm 7 mps 746 mmHg 58%
    17:00 +8°C° 0 mm 6 mps 746 mmHg 60%
    18:00 +7°C° 0 mm 5 mps 746 mmHg 62%
    19:00 +7°C° 0 mm 4 mps 746 mmHg 64%
    20:00 +7°C° 0 mm 3 mps 747 mmHg 68%
    21:00 +5°C° 0 mm 3 mps 747 mmHg 72%
    22:00 +4°C° 0 mm 3 mps 747 mmHg 76%
    23:00 +4°C° 0 mm 3 mps 747 mmHg 79%
    Show more